Date,TemperatureHighF,TemperatureAvgF,TemperatureLowF,DewpointHighF,DewpointAvgF,DewpointLowF,HumidityHigh,HumidityAvg,HumidityLow,PressureMaxIn,PressureMinIn,WindSpeedMaxMPH,WindSpeedAvgMPH,GustSpeedMaxMPH,PrecipitationSumIn
2013-3-1,53.4,50.5,47.3,50.0,48.3,46.0,98,92,85,30.43,30.38,23,12,32,0.00
2013-3-2,50.1,46.9,40.9,49.0,43.9,35.0,98,90,72,30.40,30.19,22,11,26,0.00
2013-3-3,49.4,43.3,40.1,39.0,35.2,33.0,82,73,61,30.50,30.35,14,5,18,0.00
2013-3-4,47.1,42.2,38.2,40.0,37.3,34.0,94,83,67,30.50,30.15,12,4,22,0.00
2013-3-5,46.7,43.8,40.8,40.0,34.7,30.0,96,72,56,30.14,29.94,17,7,25,0.00
2013-3-6,42.3,41.4,40.6,40.0,39.8,39.0,96,94,89,30.06,29.81,13,3,17,0.00
2013-3-7,46.3,42.8,40.6,43.0,41.0,39.0,97,93,85,30.30,30.06,13,5,14,0.00
2013-3-8,54.1,43.6,41.2,44.0,40.8,38.0,97,90,68,30.43,30.27,6,1,9,0.00
2013-3-9,49.6,43.8,39.6,43.0,40.2,39.0,97,87,71,30.67,30.43,13,6,14,0.00
2013-3-10,44.7,43.6,42.7,42.0,41.0,40.0,94,90,85,30.66,30.60,11,6,13,0.00
2013-3-11,47.4,43.9,42.1,44.0,41.0,40.0,95,89,77,30.62,30.28,15,6,21,0.00
2013-3-12,50.2,48.4,45.9,50.0,47.4,44.0,98,96,92,30.28,30.13,27,16,35,0.00
2013-3-13,51.0,49.6,48.3,49.0,48.3,48.0,97,95,91,30.32,30.20,23,16,31,0.00
2013-3-14,53.2,49.5,47.4,49.0,46.9,45.0,96,91,79,30.28,30.16,25,9,27,0.00
2013-3-15,53.9,49.0,47.1,49.0,46.7,45.0,96,92,81,30.36,30.28,18,9,25,0.00
2013-3-16,48.1,45.7,41.2,45.0,39.8,32.0,93,80,56,30.28,30.00,31,14,42,0.00
2013-3-17,47.0,42.9,40.7,36.0,33.1,29.0,82,69,52,30.31,30.11,23,10,27,0.00
2013-3-18,48.5,42.7,38.7,39.0,35.9,32.0,91,77,60,30.42,30.23,23,10,35,0.00
2013-3-19,48.7,43.2,37.9,41.0,35.0,30.0,84,73,54,30.41,29.71,36,10,44,0.00
2013-3-20,49.5,46.5,40.8,47.0,40.3,30.0,94,79,63,30.13,29.44,46,28,55,0.00
2013-3-21,44.3,40.9,38.2,37.0,34.2,31.0,87,77,65,30.38,30.14,21,11,24,0.00
2013-3-22,45.0,40.5,37.5,35.0,31.8,28.0,85,71,63,30.57,30.39,10,3,14,0.00
2013-3-23,46.8,41.8,38.4,36.0,33.1,28.0,87,72,56,30.58,30.49,11,4,13,0.00
2013-3-24,49.7,42.7,38.7,39.0,35.2,31.0,87,75,61,30.50,30.32,10,4,13,0.00
2013-3-25,54.2,46.5,41.2,40.0,36.9,33.0,86,70,50,30.33,30.13,7,3,9,0.00
2013-3-26,52.8,46.5,42.7,43.0,39.8,32.0,89,78,58,30.20,30.14,9,2,11,0.00
2013-3-27,53.9,48.1,42.8,46.0,42.9,41.0,95,83,68,30.18,30.12,10,1,10,0.00
2013-3-28,54.5,48.2,43.5,48.0,44.1,42.0,96,86,70,30.32,30.18,5,1,6,0.00
2013-3-29,61.1,47.8,42.6,51.0,45.3,42.0,98,91,64,30.45,30.32,11,2,14,0.00
2013-3-30,58.0,49.8,43.4,49.0,44.6,41.0,98,83,63,30.47,30.28,10,2,11,0.00
2013-3-31,64.1,53.2,46.5,47.0,43.7,40.0,92,72,45,30.28,30.08,6,1,11,0.00